DM4SB-4 Weather Reports


Display with metric or nautical units.
time (UTC)temp
F
wind
direction
speed
MPH
gust
MPH
rain 1hr
in
rain 24hr
in
rain mn
in
humidity
%
barometer
mb
20260507103034 48 167 2.0 5.0 0.00 0.00 0.05 90 1011.5
20260507102034 49 259 1.0 2.0 0.00 0.00 0.05 90 1011.3
20260507101033 48 16 0.0 1.0 0.00 0.00 0.05 90 1011.4
20260507100033 48 229 0.0 2.0 0.00 0.00 0.05 91 1011.3
20260507095033 47 171 0.0 2.0 0.01 0.00 0.05 93 1011.3
20260507094033 47 125 0.0 2.0 0.01 0.00 0.05 92 1011.1
20260507093034 48 160 0.0 4.0 0.01 0.00 0.05 90 1010.9
20260507092034 48 121 1.0 4.0 0.02 0.00 0.05 92 1010.8
20260507091034 48 134 0.0 0.0 0.02 0.00 0.05 94 1010.8
20260507090033 48 154 0.0 1.0 0.02 0.00 0.05 93 1010.7
20260507085033 48 146 0.0 0.0 0.02 0.00 0.03 94 1010.7
20260507084033 48 144 0.0 1.0 0.02 0.00 0.03 94 1010.4
20260507083033 47 250 0.0 1.0 0.02 0.00 0.03 95 1010.3
20260507082034 47 247 0.0 2.0 0.02 0.00 0.03 94 1010.3
20260507081034 47 147 0.0 0.0 0.02 0.00 0.03 95 1010.2
20260507080033 46 114 0.0 2.0 0.00 0.00 0.02 95 1009.9
20260507075033 46 140 1.0 3.0 0.00 0.00 0.02 95 1009.8
20260507074034 47 85 0.0 1.0 0.00 0.00 0.01 95 1009.7
20260507073034 47 258 0.0 1.0 0.00 0.00 0.01 95 1009.6
20260507072034 47 169 0.0 2.0 0.01 0.00 0.01 95 1009.3
20260507071033 47 129 0.0 0.0 0.01 0.00 0.01 96 1009.2
20260507070034 47 123 0.0 1.0 0.01 0.00 0.01 96 1009.2
20260507065033 46 233 0.0 1.0 0.01 0.00 0.01 95 1009.2
20260507064034 47 146 0.0 1.0 0.01 0.00 0.01 96 1009.1
20260507063034 46 158 0.0 3.0 0.00 0.00 0.00 95 1009.1
20260507062033 46 106 1.0 3.0 0.00 0.00 0.00 95 1009.0
20260507061033 46 126 0.0 4.0 0.00 0.00 0.00 95 1009.1
20260507060033 46 228 0.0 0.0 0.00 0.00 0.00 96 1009.0
20260507055033 46 228 0.0 1.0 0.00 0.00 0.00 96 1008.7
20260507054033 46 105 0.0 1.0 0.00 0.00 0.00 96 1008.6
20260507053034 46 161 0.0 1.0 0.00 0.00 0.00 96 1008.4
20260507052034 46 136 0.0 0.0 0.00 0.00 0.00 97 1008.4
20260507051033 46 104 0.0 4.0 0.00 0.00 0.00 98 1008.2
20260507050034 46 329 0.0 3.0 0.00 0.00 0.00 98 1008.1
20260507045034 45 141 0.0 0.0 0.00 0.00 0.00 98 1008.1
20260507044034 45 123 0.0 0.0 0.00 0.00 0.00 99 1008.1
20260507043033 44 257 0.0 0.0 0.00 0.00 0.00 99 1007.7
20260507042034 44 151 0.0 0.0 0.00 0.00 0.00 98 1007.7
20260507041033 44 151 0.0 0.0 0.00 0.00 0.00 98 1007.7
20260507040033 44 151 0.0 0.0 0.00 0.00 0.00 98 1007.6
20260507035033 44 152 0.0 0.0 0.00 0.00 0.00 98 1007.5
20260507034034 43 152 0.0 0.0 0.00 0.00 0.00 98 1007.4
20260507033034 43 152 0.0 0.0 0.00 0.00 0.00 98 1007.3
20260507032033 43 152 0.0 0.0 0.00 0.00 0.00 98 1007.3
20260507031033 43 152 0.0 0.0 0.00 0.00 0.00 98 1007.3
20260507030033 43 151 0.0 0.0 0.00 0.00 0.00 98 1007.3
20260507025034 43 151 0.0 0.0 0.00 0.00 0.00 98 1007.1
20260507024034 43 151 0.0 0.0 0.00 0.00 0.00 98 1007.3
20260507023034 43 151 0.0 0.0 0.00 0.00 0.00 98 1007.2
20260507022034 44 152 0.0 0.0 0.00 0.00 0.00 98 1007.2
20260507021033 44 151 0.0 0.0 0.00 0.00 0.00 98 1007.1
20260507020034 44 152 0.0 0.0 0.00 0.00 0.00 98 1007.2
20260507015034 43 151 0.0 0.0 0.00 0.00 0.00 98 1007.0
20260507014034 43 151 0.0 0.0 0.00 0.00 0.00 98 1007.0
20260507013033 42 151 0.0 0.0 0.00 0.00 0.00 98 1007.2
20260507012033 41 151 0.0 0.0 0.00 0.00 0.00 98 1006.7
20260507011033 42 151 0.0 0.0 0.00 0.00 0.00 98 1007.0
20260507010033 42 151 0.0 0.0 0.00 0.00 0.00 98 1006.8
20260507005033 43 152 0.0 0.0 0.00 0.00 0.00 98 1006.7
20260507004033 43 149 0.0 0.0 0.00 0.00 0.00 98 1006.7
20260507003034 42 170 0.0 0.0 0.00 0.00 0.00 97 1006.6
20260507002034 43 170 0.0 0.0 0.00 0.00 0.00 97 1006.8
20260507001033 44 170 0.0 0.0 0.00 0.00 0.00 97 1006.8
20260507000033 45 170 0.0 0.0 0.00 0.00 0.00 97 1006.8
20260506235033 45 170 0.0 0.0 0.00 0.00 0.00 97 1006.8
20260506234033 45 151 0.0 3.0 0.00 0.00 0.00 97 1006.8
20260506233033 45 170 0.0 0.0 0.00 0.00 0.00 97 1007.0
20260506232034 46 269 0.0 0.0 0.00 0.00 0.00 97 1007.0
20260506231034 46 147 0.0 0.0 0.00 0.00 0.00 97 1006.8
20260506230033 46 152 0.0 0.0 0.00 0.00 0.00 97 1007.0
20260506225033 46 152 0.0 0.0 0.00 0.00 0.00 97 1007.0
20260506224033 47 215 0.0 0.0 0.00 0.00 0.00 97 1006.7
20260506223033 47 142 0.0 0.0 0.00 0.00 0.00 98 1006.8
20260506222033 47 134 0.0 0.0 0.00 0.00 0.00 98 1006.5
20260506221033 47 133 0.0 1.0 0.00 0.00 0.00 98 1006.5
20260506220033 47 160 0.0 0.0 0.00 0.00 0.48 98 1006.1
20260506215034 48 160 0.0 0.0 0.00 0.00 0.48 98 1006.4
20260506214034 48 160 0.0 0.0 0.00 0.00 0.48 98 1006.1
20260506213033 48 160 0.0 0.0 0.00 0.00 0.48 98 1006.4
20260506212033 48 160 0.0 0.0 0.00 0.00 0.48 98 1006.3
20260506211033 48 160 0.0 0.0 0.00 0.00 0.48 98 1006.3
20260506210033 47 165 0.0 0.0 0.00 0.00 0.48 97 1006.2
20260506205033 48 167 0.0 0.0 0.00 0.00 0.48 97 1006.0
20260506204033 48 167 0.0 0.0 0.00 0.00 0.48 97 1006.0
20260506203034 48 168 0.0 0.0 0.00 0.00 0.48 97 1005.9
20260506202034 48 168 0.0 0.0 0.00 0.00 0.48 97 1006.0
20260506201033 48 168 0.0 0.0 0.00 0.00 0.48 97 1006.0
20260506200033 48 168 0.0 0.0 0.00 0.00 0.48 97 1005.8
20260506195033 48 167 0.0 0.0 0.00 0.00 0.48 97 1005.8
20260506194033 48 157 0.0 0.0 0.00 0.00 0.48 97 1005.8
20260506193033 48 157 0.0 0.0 0.00 0.00 0.48 96 1005.7
20260506192034 48 140 0.0 0.0 0.00 0.00 0.48 96 1005.6
20260506191034 48 156 0.0 0.0 0.00 0.00 0.48 96 1005.0
20260506190033 49 137 0.0 0.0 0.00 0.00 0.48 97 1005.3
20260506185033 49 294 0.0 0.0 0.00 0.00 0.48 96 1005.0
20260506184033 49 184 0.0 0.0 0.00 0.00 0.48 96 1005.0
20260506183034 49 113 0.0 0.0 0.00 0.00 0.48 96 1004.7
20260506182033 50 166 0.0 1.0 0.02 0.00 0.48 96 1004.8
20260506181033 50 153 0.0 0.0 0.05 0.00 0.48 96 1004.6
20260506180034 50 150 0.0 0.0 0.09 0.00 0.48 96 1004.3
20260506175034 50 153 0.0 1.0 0.15 0.00 0.48 96 1004.3
20260506174033 50 175 0.0 0.0 0.21 0.00 0.47 96 1004.1
20260506173033 50 142 0.0 2.0 0.27 0.00 0.47 96 1004.0
20260506172033 50 174 0.0 1.0 0.26 0.00 0.45 95 1003.9
20260506171033 50 157 0.0 1.0 0.20 0.00 0.40 95 1004.0
20260506170034 50 162 0.0 1.0 0.16 0.00 0.36 95 1004.2
20260506165034 50 125 0.0 1.0 0.11 0.00 0.30 94 1004.1
20260506164034 51 160 2.0 3.0 0.04 0.00 0.24 94 1004.1
20260506163033 51 139 0.0 0.0 0.00 0.00 0.19 94 1003.8
20260506162033 52 123 0.0 2.0 0.04 0.00 0.19 93 1003.5
20260506161033 52 281 0.0 4.0 0.05 0.00 0.19 92 1003.3
20260506160033 52 180 1.0 2.0 0.12 0.00 0.19 92 1003.6
20260506155033 52 122 0.0 2.0 0.19 0.00 0.19 92 1003.5
20260506154034 52 122 1.0 3.0 0.19 0.00 0.19 93 1003.1
20260506153034 52 177 0.0 1.0 0.18 0.00 0.18 92 1003.0
20260506152034 52 261 0.0 0.0 0.15 0.00 0.15 92 1002.9
20260506151033 53 262 0.0 0.0 0.11 0.00 0.11 90 1002.8
20260506150033 57 58 0.0 2.0 0.01 0.00 0.01 81 1002.4
20260506145033 60 125 0.0 0.0 0.00 0.00 0.00 76 1002.2
20260506144033 60 125 1.0 2.0 0.00 0.00 0.00 70 1002.3
20260506143034 61 150 0.0 1.0 0.00 0.00 0.00 70 1002.0
20260506142034 61 124 0.0 0.0 0.00 0.00 0.00 73 1002.5
20260506141034 60 124 0.0 0.0 0.00 0.00 0.00 77 1002.4
20260506140033 60 124 0.0 0.0 0.00 0.00 0.00 78 1002.3
20260506135033 62 123 0.0 0.0 0.00 0.00 0.00 69 1002.2
20260506134033 63 123 0.0 0.0 0.00 0.00 0.00 64 1002.5
20260506133033 62 133 0.0 0.0 0.00 0.00 0.00 66 1002.3
20260506132033 62 126 0.0 1.0 0.00 0.00 0.00 66 1002.4
20260506131033 62 91 0.0 0.0 0.00 0.00 0.00 69 1002.5
20260506130034 61 134 0.0 2.0 0.00 0.00 0.00 71 1002.6
20260506125033 61 119 0.0 1.0 0.00 0.00 0.00 69 1002.5
20260506124033 61 116 0.0 1.0 0.00 0.00 0.00 70 1002.6
20260506123033 61 132 0.0 0.0 0.00 0.00 0.00 75 1002.6
20260506122033 60 132 0.0 0.0 0.00 0.00 0.00 72 1002.5
20260506121033 60 121 0.0 1.0 0.00 0.00 0.00 76 1002.6
20260506120033 60 108 2.0 2.0 0.00 0.00 0.00 71 1002.7
20260506115034 59 123 0.0 1.0 0.00 0.00 0.00 75 1002.7
20260506114034 60 129 0.0 0.0 0.00 0.00 0.00 76 1002.6
20260506113033 60 151 0.0 0.0 0.00 0.00 0.00 75 1002.7
20260506112033 60 271 0.0 0.0 0.00 0.00 0.00 71 1002.9
20260506111033 61 274 0.0 0.0 0.00 0.00 0.00 71 1003.1
20260506110033 61 247 0.0 0.0 0.00 0.00 0.00 74 1003.2
20260506105033 62 238 0.0 0.0 0.00 0.00 0.00 70 1003.5
20260506104034 61 242 0.0 0.0 0.00 0.00 0.00 68 1003.6